Date String (YYYY-MM-DD hh:mm:ss) UTC,Instrument flags,absolute air pressure of the measurement (hPa),sample flow rate (lpm),inlet stack bypass flow (lpm),air temperature of the measurement (°C),ambient temperature measured by the external sensor (°C),aerosol sample conditioner tube jacket temperature (°C),OPC LED temperature (°C),internal box temperature (°C),relative humidity of the measurement (%),span deviation,mass concentration of particles derived from Lorenz-Mie calculation of OPC scattering (μg/m³),mass concentration of particles derived from Lorenz-Mie calculation of OPC scattering (μg/m³),mass concentration of particles derived from Lorenz-Mie calculation of OPC scattering (μg/m³)
DateTimeUTC,F1_M11,P_M11,Q1_M11,Q2_M11,T1_M11,T2_M11,T3_M11,T4_M11,T5_M11,U1_M11,ZSPAN_M11,X0_M11,X2_M11,X1_M11
2023-08-16 04:00:00,SystemResetWarning,0835.0,5.00,000.00,029.0,027.2,000.0,037.4,030.7,17.8,0000.0,0017.05,0004.95,0003.99
2023-08-16 04:01:00,SystemResetWarning,0835.0,4.99,000.00,029.0,027.5,000.0,037.5,030.8,17.7,0000.0,0015.98,0004.95,0004.00
2023-08-16 04:02:00,SystemResetWarning,0835.0,4.99,000.00,029.1,027.7,000.0,037.5,030.8,17.7,0000.0,0015.65,0004.99,0003.99
2023-08-16 04:03:00,SystemResetWarning,0835.0,5.00,000.00,029.1,027.9,000.0,037.5,030.9,17.6,0000.0,0015.91,0005.02,0004.00
2023-08-16 04:04:00,SystemResetWarning,0835.0,5.00,000.00,029.2,028.0,000.0,037.5,030.9,17.5,0000.0,0017.01,0005.02,0004.00
2023-08-16 04:05:00,SystemResetWarning,0835.0,4.99,000.00,029.2,026.8,000.0,037.5,030.8,17.6,0000.0,0016.06,0005.09,0004.00
2023-08-16 04:06:00,SystemResetWarning,0834.9,5.01,000.00,029.1,025.5,000.0,037.3,030.5,17.5,0000.0,0016.33,0005.14,0004.02
2023-08-16 04:07:00,SystemResetWarning,0834.9,5.01,000.00,029.1,025.5,000.0,037.3,030.4,17.6,0000.0,0016.35,0005.17,0004.04
2023-08-16 04:08:00,SystemResetWarning,0835.0,5.01,000.00,029.0,025.8,000.0,037.3,030.3,17.7,0000.0,0016.23,0005.18,0004.03
2023-08-16 04:09:00,SystemResetWarning,0835.0,5.00,000.00,029.0,026.2,000.0,037.4,030.4,17.7,0000.0,0015.68,0005.25,0004.03
2023-08-16 04:10:00,SystemResetWarning,0835.0,4.99,000.00,029.0,026.6,000.0,037.4,030.5,17.8,0000.0,0014.46,0005.31,0004.04
2023-08-16 04:11:00,SystemResetWarning,0835.0,5.00,000.00,029.0,026.9,000.0,037.4,030.6,17.6,0000.0,0014.50,0005.40,0004.05
2023-08-16 04:12:00,SystemResetWarning,0835.0,5.00,000.00,029.0,027.2,000.0,037.5,030.7,17.5,0000.0,0014.80,0005.41,0004.05
2023-08-16 04:13:00,SystemResetWarning,0835.0,5.00,000.00,029.1,027.4,000.0,037.5,030.8,17.5,0000.0,0014.63,0005.40,0004.06
2023-08-16 04:14:00,SystemResetWarning,0835.0,5.00,000.00,029.1,027.6,000.0,037.5,030.9,17.5,0000.0,0014.55,0005.35,0004.05
2023-08-16 04:15:00,SystemResetWarning,0835.0,5.00,000.00,029.2,027.8,000.0,037.5,030.9,17.4,0000.0,0014.30,0005.37,0004.06
2023-08-16 04:16:00,SystemResetWarning,0835.0,5.01,000.00,029.2,028.0,000.0,037.6,031.0,17.2,0000.0,0014.71,0005.35,0004.08
2023-08-16 04:17:00,SystemResetWarning,0835.0,4.98,000.00,029.2,027.3,000.0,037.5,030.9,17.2,0000.0,0014.52,0005.39,0004.08
2023-08-16 04:18:00,SystemResetWarning,0834.9,5.01,000.00,029.2,025.7,000.0,037.4,030.5,17.1,0000.0,0014.51,0005.43,0004.08
2023-08-16 04:19:00,SystemResetWarning,0834.9,5.01,000.00,029.1,025.4,000.0,037.3,030.4,17.2,0000.0,0014.71,0005.46,0004.09
2023-08-16 04:20:00,SystemResetWarning,0834.9,5.00,000.00,029.0,025.7,000.0,037.4,030.3,17.2,0000.0,0015.00,0005.48,0004.10
2023-08-16 04:21:00,SystemResetWarning,0834.9,5.00,000.00,029.0,026.0,000.0,037.4,030.4,17.2,0000.0,0014.78,0005.48,0004.12
2023-08-16 04:22:00,SystemResetWarning,0834.9,5.01,000.00,029.0,026.4,000.0,037.4,030.5,17.2,0000.0,0014.35,0005.41,0004.13
2023-08-16 04:23:00,SystemResetWarning,0834.9,4.99,000.00,029.0,026.8,000.0,037.5,030.6,17.2,0000.0,0014.15,0005.43,0004.15
2023-08-16 04:24:00,SystemResetWarning,0834.9,5.00,000.00,029.0,027.1,000.0,037.5,030.7,17.2,0000.0,0014.75,0005.45,0004.16
2023-08-16 04:25:00,SystemResetWarning,0835.0,5.00,000.00,029.1,027.4,000.0,037.5,030.8,17.2,0000.0,0015.39,0005.51,0004.19
2023-08-16 04:26:00,SystemResetWarning,0834.9,5.00,000.00,029.1,027.6,000.0,037.5,030.8,17.2,0000.0,0014.96,0005.58,0004.20
2023-08-16 04:27:00,SystemResetWarning,0834.9,5.00,000.00,029.1,027.8,000.0,037.6,030.9,17.1,0000.0,0014.72,0005.61,0004.21
2023-08-16 04:28:00,SystemResetWarning,0834.9,5.01,000.00,029.2,027.9,000.0,037.6,030.9,17.1,0000.0,0015.02,0005.56,0004.22
2023-08-16 04:29:00,SystemResetWarning,0834.9,5.00,000.00,029.2,028.1,000.0,037.6,031.0,17.0,0000.0,0014.67,0005.54,0004.23
2023-08-16 04:30:00,SystemResetWarning,0835.1,4.98,000.00,029.2,027.0,000.0,037.5,030.7,17.0,0000.0,0015.08,0005.54,0004.25
2023-08-16 04:31:00,SystemResetWarning,0835.2,5.01,000.00,029.2,025.5,000.0,037.4,030.5,17.1,0000.0,0014.80,0005.54,0004.28
2023-08-16 04:32:00,SystemResetWarning,0834.9,5.01,000.00,029.1,025.5,000.0,037.4,030.4,17.1,0001.1,0016.22,0005.51,0004.29
2023-08-16 04:33:00,SystemResetWarning,0834.7,4.99,000.00,029.0,025.8,000.0,037.4,030.3,17.2,0000.4,0016.76,0005.52,0004.29
2023-08-16 04:34:00,SystemResetWarning,0834.8,5.01,000.00,029.0,026.2,000.0,037.5,030.4,17.1,0000.0,0017.91,0005.52,0004.30
2023-08-16 04:35:00,SystemResetWarning,0834.7,5.00,000.00,029.0,026.5,000.0,037.5,030.6,17.1,0001.0,0017.68,0005.51,0004.30
2023-08-16 04:36:00,SystemResetWarning,0834.7,5.00,000.00,029.0,026.9,000.0,037.5,030.6,17.1,0001.6,0016.77,0005.45,0004.29
2023-08-16 04:37:00,SystemResetWarning,0834.7,5.00,000.00,029.0,027.2,000.0,037.5,030.7,17.2,0002.3,0016.56,0005.41,0004.29
2023-08-16 04:38:00,SystemResetWarning,0834.7,5.00,000.00,029.1,027.4,000.0,037.5,030.8,17.1,0000.0,0016.75,0005.44,0004.29
2023-08-16 04:39:00,SystemResetWarning,0834.7,5.00,000.00,029.1,027.6,000.0,037.6,030.9,17.0,0000.0,0016.36,0005.50,0004.30
2023-08-16 04:40:00,SystemResetWarning,0834.7,4.99,000.00,029.2,027.8,000.0,037.6,030.9,17.1,0000.0,0016.20,0005.49,0004.30
2023-08-16 04:41:00,SystemResetWarning,0834.7,5.00,000.00,029.2,028.0,000.0,037.6,031.0,17.0,0000.0,0015.59,0005.48,0004.30
2023-08-16 04:42:00,SystemResetWarning,0834.7,4.99,000.00,029.3,028.0,000.0,037.6,031.0,17.1,0000.0,0016.22,0005.51,0004.29
2023-08-16 04:43:00,SystemResetWarning,0834.7,4.99,000.00,029.3,026.5,000.0,037.5,030.8,17.1,0000.0,0015.43,0005.51,0004.28
2023-08-16 04:44:00,SystemResetWarning,0834.9,5.01,000.00,029.2,025.4,000.0,037.4,030.5,17.1,0000.0,0015.25,0005.50,0004.28
2023-08-16 04:45:00,SystemResetWarning,0835.1,5.01,000.00,029.1,025.5,000.0,037.4,030.4,17.2,0000.0,0014.71,0005.49,0004.28
2023-08-16 04:46:00,SystemResetWarning,0835.2,5.00,000.00,029.0,025.8,000.0,037.4,030.4,17.3,0000.0,0014.55,0005.52,0004.29
2023-08-16 04:47:00,SystemResetWarning,0835.1,5.00,000.00,029.0,026.2,000.0,037.5,030.4,17.3,0000.0,0014.58,0005.54,0004.31
2023-08-16 04:48:00,SystemResetWarning,0835.2,5.00,000.00,029.0,026.5,000.0,037.5,030.5,17.3,0000.0,0015.32,0005.54,0004.32
2023-08-16 04:49:00,SystemResetWarning,0835.1,5.00,000.00,029.0,026.9,000.0,037.5,030.7,17.2,0000.0,0015.27,0005.47,0004.32
2023-08-16 04:50:00,SystemResetWarning,0835.2,4.99,000.00,029.1,027.2,000.0,037.5,030.7,17.2,0000.0,0015.56,0005.43,0004.33
2023-08-16 04:51:00,SystemResetWarning,0835.2,5.00,000.00,029.1,027.4,000.0,037.6,030.8,17.2,0000.0,0015.75,0005.46,0004.35
2023-08-16 04:52:00,SystemResetWarning,0835.0,4.99,000.00,029.1,027.6,000.0,037.6,030.9,17.1,0000.0,0016.05,0005.50,0004.37
2023-08-16 04:53:00,SystemResetWarning,0835.1,5.00,000.00,029.2,027.8,000.0,037.6,030.9,17.1,0000.0,0016.11,0005.45,0004.38
2023-08-16 04:54:00,SystemResetWarning,0834.8,5.00,000.00,029.2,028.0,000.0,037.6,031.0,17.1,0000.0,0015.40,0005.43,0004.39
2023-08-16 04:55:00,SystemResetWarning,0834.8,4.99,000.00,029.3,028.1,000.0,037.7,031.0,17.0,0000.0,0014.69,0005.44,0004.41
2023-08-16 04:56:00,SystemResetWarning,0834.7,5.00,000.00,029.3,027.2,000.0,037.6,030.9,17.0,0000.0,0014.71,0005.49,0004.43
2023-08-16 04:57:00,SystemResetWarning,0834.6,5.01,000.00,029.2,025.6,000.0,037.5,030.6,17.1,0000.2,0014.78,0005.49,0004.44
2023-08-16 04:58:00,SystemResetWarning,0835.0,5.00,000.00,029.1,025.4,000.0,037.4,030.5,17.1,-000.1,0014.80,0005.49,0004.45
2023-08-16 04:59:00,SystemResetWarning,0835.1,5.01,000.00,029.1,025.6,000.0,037.4,030.3,17.2,-000.5,0014.50,0005.47,0004.45
